Weather History for New Philadelphia, OH

Change the Weather History Date:

Wednesday, February 5, 2014

  Actual Average Record
Temperature  
Mean Temperature 25 °F 30 °F  
Max Temperature 30 °F 39 °F 65 °F (1991)
Min Temperature 19 °F 21 °F -10 °F (1985)
Degree Days  
Heating Degree Days 40 35  
Month to date heating degree days 175 175  
Since 1 July heating degree days 3660 3447  
Cooling Degree Days 0 0  
Month to date cooling degree days 0 0  
Year to date cooling degree days 0 0  
Moisture  
Dew Point 23 °F    
Average Humidity 80    
Maximum Humidity 92    
Minimum Humidity 68    
Precipitation  
Precipitation 0.50 in 0.08 in 0.95 in (2008)
Month to date precipitation 1.06 0.37  
Year to date precipitation 2.88 2.97  
Sea Level Pressure  
Sea Level Pressure 29.89 in    
Wind  
Wind Speed 8 mph (NNW)    
Max Wind Speed 20 mph    
Max Gust Speed 26 mph    
Visibility 5 miles    
Events Rain , Snow    
T = Trace of Precipitation, MM = Missing Value Source: NWS Daily Summary

Daily Weather History Graph

Daily Weather History Graph

Search for Another Location

Airport:

Trip Planner

Search our weather history database for the weather conditions in past years. The results will help you decide how hot, cold, wet, or windy it might be!

Date:

Astronomy

Feb. 05, 2014 Rise Set
Actual Time 7:31 AM EST 5:48 PM EST
Civil Twilight 7:02 AM EST 6:17 PM EST
Nautical Twilight 6:30 AM EST 6:49 PM EST
Astronomical Twilight 5:58 AM EST 7:21 PM EST
Moon 10:43 AM EST (2/5) No Moon Set
Length of Visible Light 11h 14m
Length of Day
10h 17m
Waxing Crescent, 39% of the Moon is Illuminated
Feb 5
Waxing Crescent
Feb 6
First Quarter
Feb 14
Full
Feb 22
Last Quarter
Mar 1
New

Hourly Weather History & Observations

Time (EST) Temp. Windchill Dew Point Humidity Pressure Visibility Wind Dir Wind Speed Gust Speed Precip Events Conditions
12:02 AM 27.0 °F 20.5 °F 23.0 °F 85% 29.99 in 2.0 mi ENE 5.8 mph - 0.03 in Snow Light Snow
12:18 AM 27.0 °F 20.5 °F 23.0 °F 85% 29.99 in 3.0 mi ENE 5.8 mph - 0.07 in   Overcast
12:26 AM 27.0 °F 20.5 °F 23.0 °F 85% 29.98 in 3.0 mi ENE 5.8 mph - 0.09 in   Overcast
12:53 AM 27.0 °F 21.6 °F 23.0 °F 85% 30.00 in 2.5 mi NE 4.6 mph - 0.16 in Snow Light Snow
1:01 AM 27.0 °F 21.6 °F 23.0 °F 85% 29.96 in 1.5 mi ENE 4.6 mph - 0.01 in Snow Light Snow
1:48 AM 26.6 °F 22.6 °F 23.0 °F 86% 29.92 in 2.0 mi NE 3.5 mph - 0.10 in Snow Light Snow
1:53 AM 27.0 °F 23.0 °F 23.0 °F 85% 29.95 in 1.5 mi ENE 3.5 mph - 0.11 in Snow Light Snow
2:07 AM 27.0 °F 18.7 °F 23.0 °F 85% 29.90 in 2.5 mi East 8.1 mph - 0.02 in Snow Light Snow
2:19 AM 27.0 °F 20.5 °F 23.0 °F 85% 29.88 in 4.0 mi East 5.8 mph - 0.04 in   Overcast
2:34 AM 28.0 °F 22.8 °F 24.1 °F 85% 29.89 in 5.0 mi Variable 4.6 mph - 0.06 in   Overcast
2:53 AM 28.0 °F 21.7 °F 24.1 °F 85% 29.91 in 3.0 mi Variable 5.8 mph - 0.07 in Snow Light Snow
3:02 AM 28.0 °F 22.8 °F 24.1 °F 85% 29.87 in 2.5 mi ENE 4.6 mph - 0.00 in Snow Light Snow
3:11 AM 28.0 °F 22.8 °F 24.1 °F 85% 29.86 in 5.0 mi East 4.6 mph - 0.01 in   Overcast
3:33 AM 28.0 °F 21.7 °F 24.1 °F 85% 29.82 in 5.0 mi ENE 5.8 mph - 0.02 in Rain Light Freezing Rain
3:53 AM 28.9 °F 25.2 °F 25.0 °F 85% 29.82 in 5.0 mi Variable 3.5 mph - 0.04 in Rain Light Freezing Rain
4:43 AM 28.9 °F 23.9 °F 25.0 °F 85% 29.76 in 9.0 mi ENE 4.6 mph - 0.01 in   Overcast
4:53 AM 28.9 °F 25.2 °F 25.0 °F 85% 29.79 in 10.0 mi ENE 3.5 mph - 0.01 in   Overcast
5:53 AM 28.9 °F 22.8 °F 25.0 °F 85% 29.73 in 9.0 mi East 5.8 mph - N/A   Overcast
6:25 AM 28.9 °F 21.9 °F 25.0 °F 85% 29.66 in 8.0 mi East 6.9 mph - 0.00 in Rain Light Freezing Rain
6:36 AM 28.9 °F 22.8 °F 25.0 °F 85% 29.65 in 9.0 mi East 5.8 mph - 0.00 in   Overcast
6:53 AM 28.9 °F 25.2 °F 25.0 °F 85% 29.67 in 7.0 mi ENE 3.5 mph - 0.00 in Rain Light Freezing Rain
7:21 AM 28.9 °F - 26.1 °F 89% 29.63 in 3.0 mi Calm Calm - 0.04 in Rain Light Freezing Rain
7:42 AM 30.0 °F 21.7 °F 26.1 °F 85% 29.67 in 2.0 mi WNW 9.2 mph - 0.11 in Rain Light Freezing Rain
7:53 AM 30.0 °F 24.1 °F 27.0 °F 88% 29.69 in 4.0 mi Variable 5.8 mph - 0.12 in Rain Light Freezing Rain
8:32 AM 28.9 °F 22.8 °F 26.1 °F 89% 29.67 in 3.0 mi NW 5.8 mph - 0.01 in   Overcast
8:41 AM 28.9 °F 23.9 °F 26.1 °F 89% 29.68 in 2.5 mi WNW 4.6 mph - 0.01 in   Overcast
8:51 AM 30.2 °F 25.4 °F 26.6 °F 86% 29.67 in 3.0 mi WNW 4.6 mph - 0.01 in   Overcast
8:53 AM 28.9 °F 22.8 °F 27.0 °F 92% 29.70 in 3.0 mi NW 5.8 mph - 0.01 in   Overcast
9:15 AM 28.9 °F 23.9 °F 27.0 °F 92% 29.68 in 2.5 mi WNW 4.6 mph - N/A   Overcast
9:38 AM 28.9 °F 21.9 °F 27.0 °F 92% 29.70 in 3.0 mi NW 6.9 mph - N/A   Overcast
9:53 AM 28.9 °F 21.9 °F 26.1 °F 89% 29.73 in 5.0 mi WNW 6.9 mph - N/A   Overcast
10:03 AM 28.9 °F 20.4 °F 26.1 °F 89% 29.71 in 7.0 mi WNW 9.2 mph - N/A   Overcast
10:53 AM 30.0 °F 23.2 °F 26.1 °F 85% 29.77 in 8.0 mi West 6.9 mph - N/A   Overcast
11:15 AM 30.0 °F 21.7 °F 26.1 °F 85% 29.76 in 9.0 mi West 9.2 mph - N/A   Overcast
11:53 AM 28.0 °F 18.6 °F 23.0 °F 81% 29.82 in 8.0 mi WNW 10.4 mph 19.6 mph N/A   Overcast
12:38 PM 28.0 °F 17.5 °F 21.9 °F 78% 29.81 in 8.0 mi West 12.7 mph 20.7 mph N/A   Overcast
12:53 PM 28.0 °F 18.1 °F 21.9 °F 78% 29.85 in 7.0 mi West 11.5 mph 18.4 mph N/A   Overcast
1:29 PM 27.0 °F 18.0 °F 21.0 °F 78% 29.83 in 5.0 mi West 9.2 mph 19.6 mph 0.00 in   Haze
1:41 PM 27.0 °F 16.1 °F 21.0 °F 78% 29.85 in 5.0 mi WNW 12.7 mph 19.6 mph 0.00 in   Haze
1:53 PM 26.1 °F 14.5 °F 21.0 °F 81% 29.89 in 4.0 mi WNW 13.8 mph 19.6 mph 0.00 in   Haze
2:53 PM 26.1 °F 14.5 °F 19.0 °F 75% 29.95 in 8.0 mi NW 13.8 mph 24.2 mph 0.00 in   Overcast
3:53 PM 25.0 °F 14.8 °F 19.0 °F 78% 30.03 in 4.0 mi NW 10.4 mph 21.9 mph 0.00 in Snow Light Snow
4:48 PM 24.8 °F 14.0 °F 17.6 °F 74% 30.05 in 2.0 mi NNW 11.5 mph - 0.00 in Snow Light Snow
4:53 PM 24.1 °F 14.4 °F 17.1 °F 75% 30.09 in 2.5 mi NNW 9.2 mph 19.6 mph 0.00 in Snow Light Snow
5:00 PM 24.1 °F 11.5 °F 16.0 °F 71% 30.06 in 6.0 mi NNW 15.0 mph 21.9 mph 0.00 in Snow Light Snow
5:53 PM 24.1 °F 13.7 °F 17.1 °F 75% 30.14 in 9.0 mi NW 10.4 mph - 0.00 in   Overcast
6:53 PM 23.0 °F 14.7 °F 16.0 °F 74% 30.19 in 10.0 mi NW 6.9 mph - N/A   Overcast
7:53 PM 23.0 °F 13.9 °F 17.1 °F 78% 30.22 in 9.0 mi NW 8.1 mph - N/A   Overcast
8:53 PM 23.0 °F 13.1 °F 16.0 °F 74% 30.27 in 6.0 mi NW 9.2 mph - 0.00 in Snow Light Snow
9:53 PM 21.9 °F 10.4 °F 15.1 °F 75% 30.30 in 10.0 mi NNW 11.5 mph - 0.00 in   Overcast
10:53 PM 21.0 °F 10.6 °F 12.9 °F 71% 30.32 in 10.0 mi NW 9.2 mph - 0.00 in   Overcast
11:53 PM 19.0 °F 10.0 °F 12.0 °F 74% 30.35 in 10.0 mi WNW 6.9 mph - N/A   Overcast